Flag for U.S.A. Weather past 2 weeks in Pocatello, Idaho, U.S.A.

Now
29 °F

Overcast.


Feels Like: 25 °F
Forecast: 19 / 40 °F
Wind: 3 mph from North

Location: Pocatello Regional Airport

Current Time: Feb 27, 2015 at 5:29:44 AM

Latest Report: Feb 27, 2015 at 4:53 AM


Visibility: 10 mi

Pressure: 29.85 "Hg

Humidity: 96%

Dew point: 28 °F

Location of PocatelloLocation

Historic Weather in Pocatello — Graph

°F

Pocatello temperature yesterday

Maximum temperature yesterday: 42 °F (at 12:53 PM)
Minimum temperature yesterday: 25 °F (at 4:53 AM)
Average temperature yesterday: 33 °F

Past Weeks' High & Low Weather Summary

 TemperatureHumidityPressure
High58 °F (Feb 13, 2:53 PM)100% (Feb 12, 7:53 AM)30.46 "Hg (Feb 12, 7:53 AM)
Low12 °F (Feb 23, 5:53 AM)10% (Feb 23, 4:53 PM)29.84 "Hg (Feb 27, 3:04 AM)
Average36 °F59%30.21 "Hg
* Reported Feb 12 3:53 AM — Feb 27 3:53 AM, Pocatello, Weather by CustomWeather, © 2015

Note: Actual official high and low records may vary slightly from our data, if they occured in-between our weather recording intervals... More about our weather records

Advertising

Pocatello weather history for previous 24 hours

 ConditionsComfort  
Time TempWeatherWind HumidityBarometerVisibility
3:53 AM
Fri, Feb 27
30 °FMostly cloudy.5 mph96%29.85 "Hg10 mi
3:04 AM31 °FMostly cloudy.10 mph96%29.84 "Hg10 mi
2:53 AM30 °FOvercast.10 mph100%29.87 "Hg10 mi
1:53 AM30 °FOvercast.No wind75%29.89 "Hg10 mi
12:53 AM29 °FPassing clouds.3 mph75%29.90 "Hg10 mi
11:53 PM
Thu, Feb 26
30 °FOvercast.No wind82%29.92 "Hg10 mi
10:53 PM32 °FMostly cloudy.3 mph75%29.94 "Hg10 mi
9:53 PM34 °FLight snow. Mostly cloudy.5 mph64%29.96 "Hg9 mi
8:53 PM34 °FMostly cloudy.5 mph64%29.97 "Hg10 mi
7:53 PM37 °FOvercast.7 mph48%29.97 "Hg10 mi
6:53 PM34 °FBroken clouds.6 mph50%29.99 "Hg10 mi
5:53 PM36 °FScattered clouds.7 mph38%29.98 "Hg10 mi
4:53 PM42 °FScattered clouds.8 mph28%29.97 "Hg10 mi
3:53 PM42 °FPartly sunny.8 mph28%29.96 "Hg10 mi
2:53 PM42 °FPartly sunny.10 mph29%29.98 "Hg10 mi
1:53 PM42 °FScattered clouds.9 mph30%29.99 "Hg10 mi
12:53 PM42 °FScattered clouds.No wind33%30.01 "Hg10 mi
11:53 AM40 °FPassing clouds.7 mph38%30.06 "Hg10 mi
10:53 AM36 °FPartly sunny.8 mph46%30.08 "Hg10 mi
9:53 AM34 °FScattered clouds.5 mph54%30.07 "Hg10 mi
8:53 AM30 °FOvercast.No wind64%30.07 "Hg10 mi
7:53 AM28 °FOvercast.5 mph69%30.06 "Hg10 mi
6:53 AM26 °FOvercast.3 mph74%30.06 "Hg10 mi
5:53 AM26 °FPartly cloudy.3 mph74%30.03 "Hg10 mi
Weather by CustomWeather, © 2015

See weather overviewHow to use our weather pages